This demonstration page uses our WeatherBlox Daily Observations layout. Learn more.

Hourly Observations for August 5, 2017

Temp ( °F °C ) Dew Point ( °F °C ) Humidity (%) Winds ( mph kmh ) Pressure ( in mb ) Visibility ( mi km ) Precip ( " mm )
12:54 am 00:54 Mostly Cloudy 63 17.2 54 12.2 73 73 S 7 11 30.03 1017 10 16.0934 0 0
1:54 am 01:54 Cloudy 64 17.8 55 12.8 73 73 SSE 6 9 30.01 1016 10 16.0934 0 0
2:54 am 02:54 Cloudy 64 17.8 54 12.2 70 70 S 8 13 30 1016 10 16.0934 0 0
3:54 am 03:54 Mostly Cloudy 64 17.8 54 12.2 70 70 SSE 8 13 29.96 1015 10 16.0934 0 0
4:54 am 04:54 Partly Cloudy 64 17.8 53 11.7 68 68 SSE 8 13 29.94 1014 10 16.0934 0 0
5:54 am 05:54 Cloudy 65 18.3 53 11.7 66 66 SSE 9 15 29.94 1014 10 16.0934 0 0
6:54 am 06:54 Cloudy with Light Rain 64 17.8 54 12.2 70 70 W 8 13 30.01 1016 10 16.0934 0 0.0254
7:54 am 07:54 Cloudy with Heavy Rain 60 15.6 57 13.9 90 90 SSE 14 22 30.01 1016 2.5 4.02335 0.14 3.556
8:03 am 08:03 Cloudy with Light Rain 60 15.6 57 13.9 90 90 SSE 8 13 30.03 1017 6 9.65604 0.02 0.508
8:37 am 08:37 Mostly Cloudy with Light Thunderstorms 60 15.6 57 13.9 90 90 SSE 13 20 30 1016 8 12.87472 0.02 0.508
8:54 am 08:54 Cloudy with Light Thunderstorms 60 15.6 58 14.4 93 93 SSE 12 19 29.98 1015 6 9.65604 0.08 2.032
9:04 am 09:04 Cloudy 61 16.1 57 13.9 87 87 SSE 15 24 30 1016 10 16.0934 0 0.0254
9:54 am 09:54 Cloudy with Light Rain 61 16.1 57 13.9 87 87 SSE 16 26 29.97 1015 9 14.48406 0 0.0254
10:44 am 10:44 Cloudy with Nearby Thunderstorms 62 16.7 58 14.4 86 86 SE 12 19 29.97 1015 10 16.0934 0.03 0.762
10:54 am 10:54 Cloudy with Nearby Thunderstorms 62 16.7 58 14.4 86 86 SE 7 11 29.99 1016 8 12.87472 0.04 1.016
11:03 am 11:03 Cloudy 63 17.2 58 14.4 84 84 ENE 6 9 29.97 1015 10 16.0934 0 0.0254
11:54 am 11:54 Cloudy with Light Rain 63 17.2 59 15 87 87 E 10 17 29.98 1015 10 16.0934 0 0.0254
12:54 pm 12:54 Cloudy 64 17.8 59 15 84 84 SSE 6 9 29.95 1014 10 16.0934 0 0.0254
1:54 pm 13:54 Cloudy with Light Rain 64 17.8 60 15.6 87 87 Calm 29.96 1014 10 16.0934 0 0.0254
2:54 pm 14:54 Mostly Cloudy 68 20 62 16.7 81 81 E 12 19 29.93 1013 10 16.0934 0 0.0254
3:11 pm 15:11 Mostly Cloudy 68 20 62 16.7 81 81 E 12 19 29.91 1013 10 16.0934 0 0
3:46 pm 15:46 Cloudy 69 20.6 61 16.1 76 76 SE 10 17 29.91 1013 10 16.0934 0 0
3:54 pm 15:54 Cloudy 69 20.6 62 16.7 78 78 ESE 10 17 29.91 1013 10 16.0934 0 0
4:16 pm 16:16 Cloudy 69 20.6 62 16.7 78 78 ESE 8 13 29.91 1013 10 16.0934 0 0
4:54 pm 16:54 Cloudy 68 20 61 16.1 78 78 E 13 20 29.92 1013 10 16.0934 0 0
5:54 pm 17:54 Cloudy 67 19.4 61 16.1 81 81 E 10 17 29.92 1013 10 16.0934 0 0
6:54 pm 18:54 Cloudy 66 18.9 60 15.6 81 81 ENE 12 19 29.91 1013 10 16.0934 0 0
7:35 pm 19:35 Cloudy 66 18.9 60 15.6 81 81 E 13 20 29.88 1012 10 16.0934 0 0
7:54 pm 19:54 Cloudy 66 18.9 60 15.6 81 81 E 10 17 29.9 1013 10 16.0934 0 0
8:54 pm 20:54 Cloudy 66 18.9 60 15.6 81 81 E 10 17 29.89 1012 10 16.0934 0 0
9:54 pm 21:54 Cloudy 66 18.9 60 15.6 81 81 E 9 15 29.93 1014 10 16.0934 0 0
10:54 pm 22:54 Cloudy 65 18.3 60 15.6 84 84 ESE 9 15 29.92 1013 10 16.0934 0 0
11:52 pm 23:52 Cloudy 64 18 61 16 88 88 ENE 6 9 29.94 1014 10 16.0934 0 0
11:54 pm 23:54 Cloudy 65 18.3 61 16.1 87 87 NE 7 11 29.94 1014 10 16.0934 0 0

Powered by AerisWeather